Location: Newark
(58.8333°N, 23.5833°E)
Time: 11:50:46
(UTC+00:00)

Explorer 7 - Pass Details

Date: 20 November 2019
Orbit: 485 x 680 km, 50.3° (Epoch: 11 December)

Event Time Altitude Azimuth Distance (km) Brightness Sun altitude
Rises 00:52:35 0° 248° (WSW) 2,878 - -41.2°
Reaches altitude 10° 00:55:13 10° 236° (SW) 1,937 - -40.9°
Maximum altitude 00:58:54 26° 179° (S) 1,137 - -40.5°
Drops below altitude 10° 01:02:25 10° 122° (ESE) 1,832 - -40.1°
Sets 01:04:50 0° 110° (ESE) 2,690 - -39.9°
